Уил

Казахстан     49°04′27″N   54°39′56″E
темп.,
°C
ветер,
м/с
пор.,
м/с
влажн.,
%
обл.,
%
осадки,
мм/ч
давл.,
гПа
погр.,
м
23 октября, сб
сб2323:00+11юз8166556 0.0 1020429
02:00+10юз715855 0.0 1020363
05:00+9юз7149210 0.0 1020333
08:00+9юз7139659 0.0 1020335
11:00+12юз81285100 0.0 1022574
14:00+16юз8106410 0.0 1022953
17:00+16ююз89619 0.0 10211074
20:00+12ююз410750 0.0 1021189
24 октября, вс
вс2423:00+11ююз410720 0.0 1021201
02:00+9ю411610 0.0 1020203
05:00+8ю49440 0.0 1019158
08:00+7ю410365 0.0 1019167
11:00+13ююз710218 0.0 1019430
14:00+17юз792348 0.0 1018869
17:00+17юз5729100 0.0 1017459
20:00+13ююз3334100 0.0 101734
25 октября, пн
пн2523:00+12ююз2236100 0.0 101724
02:00+11ююз2330100 0.0 101534
05:00+10юз2236100 0.0 101419
08:00+10сз2365100 0.0 101450
11:00+11ссз5582100 0.1 1015561
14:00+9с5672100 0.1 1015366
17:00+9ссз5761100 0.1 1016734
20:00+8зсз476095 0.0 1017186
26 октября, вт
вт2623:00+6ссз612595 0.0 1019367
02:00+4ссз510793 0.0 1021305
05:00+2ссз510855 0.0 1022287
08:00+2ссз49946 0.0 1024257
11:00+6с676280 0.0 1026884
14:00+7ссз5553100 0.0 10261355
17:00+7с454666 0.0 10271390
20:00+4с3652100 0.0 1029102
27 октября, ср
ср2723:00+2ссв33440 0.0 103026
02:00+1с22460 0.0 103111
05:000с11485 0.0 103110
08:00−1зсз11515 0.0 103210
11:00+5з12340 0.0 1033350
14:00+8з33240 0.0 1032869
17:00+8з34230 0.0 1031883
20:00+5зюз33292 0.0 103220